Weather Roundup
Issued by NWS

Home | Current Version | Previous Version | Graphics & Text | Print | Product List | Glossary Off
Versions: 1 2 3 4 5 6 7 8 9 10 11 12 13 14 15 16 17 18 19 20 21 22 23 24 25 26 27 28 29 30 31 32 33 34 35 36 37 38 39 40 41 42 43 44 45 46 47 48 49 50

166
NZUS93 KARX 300859
HRRWXR

CURRENT HOURLY OBSERVATIONS ACROSS
MUCH OF THE UPPER MISSISSIPPI VALLEY
NATIONAL WEATHER SERVICE LA CROSSE WI
400 AM CDT SAT JUL 30 2016


...SOUTHEAST MINNESOTA...


CITY           SKY/WX    TMP DP  RH WIND       PRES   REMARKS
ROCHESTER      CLOUDY    64  63  96 E5        30.04S
ROCHESTER/MAYO FAIR      65  65 100 CALM      30.03F
WINONA         PTCLDY    68  64  88 CALM      30.02S
AUSTIN         CLOUDY    63  59  88 CALM      30.02S
ALBERT LEA     MOCLDY    61  59  94 CALM      30.03S
DODGE CENTER   PTCLDY    61  57  88 CALM      30.03S
PRESTON        CLOUDY    63  61  94 CALM      30.04S FOG
OWATONNA       MOCLDY    61  59  94 CALM      30.03S
FARIBAULT      CLOUDY    63  61  94 CALM      30.03S
$$

...ELSEWHERE IN MINNESOTA...


CITY           SKY/WX    TMP DP  RH WIND       PRES   REMARKS
MINNEAPOLIS    MOCLDY    69  58  67 N3        30.02S
INTNL FALLS    CLEAR     56  53  90 SE3       30.03S
DULUTH         CLOUDY    52  49  89 CALM      30.05F
RED WING       CLOUDY    63  59  88 CALM      30.01S
REDWOOD FALLS  CLEAR     57  55  93 CALM      30.04R
MANKATO        CLEAR     59  50  72 CALM      30.03S
WORTHINGTON    PTCLDY    55  53  93 W3        30.06S
FAIRMONT       PTCLDY    57  52  82 CALM      30.03S
$$

...SOUTHWEST WISCONSIN...


CITY           SKY/WX    TMP DP  RH WIND       PRES   REMARKS
LA CROSSE      CLOUDY    67  65  93 N3        30.01S
PRAIRIE DU CHI CLOUDY    66  63  90 CALM      30.00S
BOSCOBEL       FOG       64  63  96 CALM      30.00F VSB 1/4
LONE ROCK      NOT AVBL
PLATTEVILLE    CLOUDY    64  64 100 N6        30.00S
FORT MC COY    CLOUDY    62  62  99 CALM      30.03S
MAUSTON-NEW LI CLOUDY    61  61 100 CALM      30.02R
VIROQUA        CLOUDY    64  64 100 CALM      30.03S
WIS DELLS      NOT AVBL
$$

...ELSEWHERE IN WISCONSIN...


CITY           SKY/WX    TMP DP  RH WIND       PRES   REMARKS
MILWAUKEE      CLOUDY    68  63  84 E9        29.97S
MADISON        CLOUDY    64  59  83 N6        29.99S
GREEN BAY      CLEAR     60  59  96 CALM      30.02S
EAU CLAIRE     MOCLDY    60  60 100 NE5       30.03S FOG
BLACK RVR FLS  CLOUDY    62  62 100 NE3       30.03S
MEDFORD        CLOUDY    57  57 100 NE3       30.07F
WAUSAU         MOCLDY    60  55  83 N3        30.04F
WIS RAPIDS     CLOUDY    64  56  75 NE7       30.04F
MARSHFIELD     CLEAR     61  56  83 NE5       30.04F
RICE LAKE      CLEAR     57  55  94 CALM      30.06F
$$

...NORTHEAST IOWA...


CITY           SKY/WX    TMP DP  RH WIND       PRES   REMARKS
WATERLOO       MOCLDY    65  64  97 NE3       29.98F
DUBUQUE        CLOUDY    66  64  93 NE8       29.99S
DECORAH        CLOUDY    66  66 100 CALM      30.01S
MASON CITY     CLOUDY    61  60  97 N3        30.04R
CHARLES CITY   MOCLDY    64  64 100 N3        30.02R FOG
OELWEIN        CLOUDY    66  64  94 N5        30.00S
$$

...ELSEWHERE IN IOWA...


CITY           SKY/WX    TMP DP  RH WIND       PRES   REMARKS
DES MOINES     CLOUDY    67  64  90 NW3       29.99S
IOWA CITY      CLOUDY    69  66  90 NE7       29.97F
FORT DODGE     CLOUDY    64  63  94 NW3       30.03S
MARSHALLTOWN   MOCLDY    63  63 100 N3        29.98F
CEDAR RAPIDS   CLOUDY    67  67 100 N6        29.97S FOG
$$

...NORTHERN ILLINOIS...


CITY           SKY/WX    TMP DP  RH WIND       PRES   REMARKS
CHICAGO-OHARE  MOCLDY    71  66  84 NE9       29.92F
CHICAGO-MIDWAY CLOUDY    73  67  81 NE7       29.92S
MOLINE         CLOUDY    71  65  81 NE7       29.94S
ROCKFORD       CLOUDY    68  65  90 N6        29.97R
PEORIA         CLOUDY    71  69  93 CALM      29.93S
$$

NOTE: "FAIR" INDICATES FEW OR NO CLOUDS BELOW 12,000 FEET WITH NO
SIGNIFICANT WEATHER AND/OR OBSTRUCTIONS TO VISIBILITY. WIND
SPEEDS ARE IN MILES-PER-HOUR.




USA.gov is the U.S. government's official web portal to all federal, state and local government web resources and services.